Regional Weather Roundup
Issued by NWS Charleston, WV

Home | Current Version | Previous Version | Graphics & Text | Print | Product List | Glossary On
Versions: 1 2 3 4 5 6 7 8 9 10 11 12 13 14 15 16 17 18 19 20 21 22 23 24 25 26 27 28 29 30 31 32 33 34 35 36 37 38 39 40 41 42 43 44 45 46 47 48 49 50
000
ASUS41 KRLX 291310
RWRRLX
West Virginia Regional Weather Roundup
National Weather Service Charleston WV
900 AM EDT SUN MAR 29 2015

Note: "fair" indicates few or no clouds below 12,000 feet with no
significant weather and/or obstructions to visibility.

WVZ003-291400-
Northern Panhandle of West Virginia

CITY           SKY/WX    TMP DP  RH WIND       PRES   REMARKS
WHEELING       SUNNY     22  12  65 SW6       30.36R
$$

WVZ009-291400-
Northwest West Virginia

CITY           SKY/WX    TMP DP  RH WIND       PRES   REMARKS
PARKERSBURG    SUNNY     23  14  68 S5        30.43R
$$

WVZ006-291400-
Western West Virginia

CITY           SKY/WX    TMP DP  RH WIND       PRES   REMARKS
HUNTINGTON     SUNNY     24  16  71 E3        30.39F
$$

WVZ015-291400-
West Central West Virginia

CITY           SKY/WX    TMP DP  RH WIND       PRES   REMARKS
CHARLESTON     SUNNY     23  17  78 CALM      30.40R
$$

WVZ022-031-291400-
North Central West Virginia

CITY           SKY/WX    TMP DP  RH WIND       PRES   REMARKS
CLARKSBURG     SUNNY     21  13  71 S7        30.38R
MORGANTOWN     SUNNY     21   8  57 S7        30.38R
$$

WVZ025-035-042-045-291400-
Southern West Virginia

CITY           SKY/WX    TMP DP  RH WIND       PRES   REMARKS
BECKLEY        SUNNY     20   8  60 CALM      30.31R
LOGAN            N/A     25  12  58 CALM      30.33S
BLUEFIELD      SUNNY     22   8  55 SW5       30.30R
LEWISBURG      SUNNY     24   9  53 SW5       30.32S
$$

WVZ047-291400-
Northern Mountains of West Virginia

CITY           SKY/WX    TMP DP  RH WIND       PRES   REMARKS
ELKINS         SUNNY     17  11  77 CALM      30.35R
$$

WVZ052-291400-
Eastern Panhandle of West Virginia

CITY           SKY/WX    TMP DP  RH WIND       PRES   REMARKS
MARTINSBURG    SUNNY     28   7  41 N9        30.38R
PETERSBURG     SUNNY     24   8  52 CALM      30.39R
$$


USA.gov is the U.S. government's official web portal to all federal, state and local government web resources and services.